[[{"header":{"parameterUnit":"m.s-1","parameterCategory":1,"la1":30.2991,"la2":30.254,"lo1":-89.0895,"lo2":-89.0444,"dy":0.0017,"dx":0.0017,"nx":28,"ny":28,"refTime":"2024-11-26T03:00:00:Z","depth":0,"parameterNumber":2,"parameterNumberName":"U-component_of_WINDS"},"data":[0,0,0,0,0,0,0,0,0,0,0,0,0,0,0,0,0,0,0,0,0,0,0,0,0,0,0,0,0,0,0,0,0,0,0,0,0,0,0,0,0,0,0,0,0,0,0,0,0,0,0,0,0,0,0,0,0,0,0.0195,0.0195,0,0.0243,0.0243,0.0244,0.0261,0.0261,0.0261,0.0261,0.0312,0.0314,0.0316,0,0,0,0,0,0,0,0,0,0,0,0,0,0.012,0.0121,0.0195,0.0195,0.0196,0.0243,0.0243,0.0244,0.0261,0.0261,0.0261,0.026,0.0312,0.0314,0.0316,0,0,0,0,0,0,0,0,0,0,0,0,0,0.0158,0.0121,0.0194,0.021,0.0212,0.0242,0.0243,0.0244,0.0261,0.0261,0.0261,0.026,0.0311,0.0314,0.0316,0.0336,0,0,0.0323,0.0324,0,0,0,0,0,0,0,0,0.0156,0.0161,0.0207,0.0209,0.0211,0.0246,0.0236,0.0275,0.0261,0.0242,0.0261,0.026,0.0291,0.0295,0.0304,0.0338,0.034,0.0323,0.0325,0.0326,0.0326,0,0,0,0,0,0,0,0.0154,0.0159,0.0214,0.0208,0.021,0.0215,0.022,0.0243,0.0268,0.0244,0.0245,0.0251,0.0292,0.0302,0.0306,0.0341,0.0323,0.0325,0.0327,0.0328,0.0393,0.0394,0,0,0,0,0,0,0.0148,0.0157,0.0212,0.0215,0.0182,0.0217,0.0223,0.0235,0.0267,0.0272,0.0251,0.0251,0.0298,0.0303,0.0308,0.0333,0.0326,0.0328,0.0329,0.0393,0.0393,0.0394,0,0,0,0,0,0,0.0146,0.0153,0.021,0.0186,0.0194,0.0218,0.0232,0.0236,0.0246,0.0272,0.0277,0.0257,0.0298,0.0304,0.0328,0.0335,0.0329,0.0331,0.0393,0.0393,0.0394,0.0383,0,0,0,0,0,0,0.0144,0.0152,0.0159,0.0186,0.0195,0.0229,0.0232,0.0237,0.025,0.0251,0.0279,0.0284,0.0298,0.0325,0.0331,0.0338,0.0333,0.0392,0.0393,0.0393,0.0383,0.0383,0.0384,0,0,0,0,0,0.0141,0.0155,0.0159,0.0166,0.0205,0.023,0.0235,0.0251,0.025,0.0258,0.0275,0.0283,0.0333,0.0327,0.0334,0.0342,0.0392,0.0393,0.0393,0.0383,0.0383,0.0384,0,0,0,0,0,0,0.0129,0.0159,0.0164,0.0187,0.0205,0.0233,0.0243,0.0251,0.027,0.0271,0.029,0.0297,0.0319,0.0333,0.0326,0.0363,0.0363,0.0365,0.0353,0.0353,0.0353,0.035,0.0335,0,0,0,0,0,0.0128,0.0146,0.0171,0.0189,0.0198,0.0219,0.023,0.0241,0.0261,0.0269,0.0288,0.0308,0.0329,0.0342,0.0362,0.0385,0.0392,0.0394,0.0394,0.0394,0.0396,0.0409,0.0411,0.0396,0.0396,0.0396,0,0,0.0129,0.0147,0.0157,0.0187,0.0203,0.022,0.0225,0.0244,0.0258,0.0273,0.0296,0.031,0.0334,0.0358,0.0369,0.037,0.0401,0.0395,0.0395,0.0397,0.041,0.0412,0.0413,0.0397,0.0397,0.0397,0,0,0.0138,0.0153,0.0169,0.0185,0.0208,0.0222,0.0226,0.0252,0.0261,0.0285,0.0296,0.0313,0.0348,0.0365,0.0377,0.0392,0.04,0.0398,0.04,0.0412,0.0414,0.0415,0.042,0.0422,0.04,0.04,0.04,0,0.0135,0.0162,0.0177,0.0195,0.0208,0.0221,0.0238,0.0253,0.0282,0.0291,0.0291,0.0334,0.0352,0.0379,0.0383,0.0393,0.0398,0.0395,0.0412,0.0413,0.0415,0.042,0.0422,0.04,0.04,0.04,0.04,0,0.0157,0.0176,0.0186,0.0213,0.0227,0.0244,0.0263,0.0276,0.0285,0.0299,0.0323,0.0344,0.0368,0.0375,0.0385,0.0404,0.0404,0.0408,0.0409,0.0415,0.0421,0.0423,0.0399,0.0399,0.0399,0.0399,0,0,0.016,0.0195,0.0198,0.0211,0.0237,0.0252,0.027,0.0293,0.0304,0.0323,0.034,0.0368,0.0372,0.0386,0.0398,0.0409,0.0419,0.0411,0.0412,0.0412,0.0442,0.0439,0.0441,0.0425,0.0425,0.0425,0.044,0,0.0173,0.0205,0.0219,0.0246,0.0263,0.0275,0.0291,0.031,0.0323,0.034,0.0355,0.0375,0.0378,0.0387,0.0399,0.0415,0.0426,0.0415,0.044,0.0441,0.0434,0.0444,0.0442,0.0455,0.0443,0.0443,0.0443,0,0.0192,0.0211,0.0238,0.0262,0.027,0.0284,0.0307,0.0323,0.0344,0.0353,0.0369,0.0379,0.04,0.0398,0.0427,0.0419,0.043,0.044,0.0441,0.0444,0.0443,0.0448,0.0459,0.0461,0.0447,0.0446,0.0446,0,0.0192,0.0224,0.0244,0.0254,0.0283,0.0293,0.0305,0.0326,0.0339,0.0359,0.0367,0.0389,0.0401,0.0418,0.0435,0.0433,0.0462,0.0462,0.047,0.047,0.0476,0.0476,0.0489,0.0483,0.0483,0.0483,0.0483,0,0.0205,0.0221,0.0244,0.0257,0.0276,0.0293,0.0311,0.0325,0.0343,0.0359,0.0371,0.0386,0.0407,0.0425,0.0438,0.0459,0.0465,0.0473,0.0476,0.0472,0.0471,0.048,0.048,0.0483,0.0483,0.0483,0.0483,0,0.0207,0.0224,0.0247,0.0272,0.0279,0.0292,0.0313,0.0327,0.034,0.036,0.0366,0.0388,0.0409,0.0427,0.0456,0.0464,0.0487,0.0491,0.0479,0.0481,0.0488,0.0487,0.0509,0.0512,0.0503,0.0503,0.0503,0,0.0215,0.0227,0.0254,0.0265,0.0277,0.0295,0.0308,0.0325,0.0338,0.0363,0.0373,0.0395,0.0413,0.0447,0.0466,0.0488,0.0492,0.0498,0.0496,0.0491,0.0493,0.0492,0.0493,0.0499,0.0499,0.0499,0.0499,0,0.0226,0.0233,0.0251,0.0272,0.0286,0.0304,0.0321,0.033,0.035,0.0364,0.0386,0.04,0.0429,0.0451,0.0474,0.0488,0.0497,0.0499,0.0502,0.0498,0.0491,0.0495,0.048,0.0499,0.0499,0.0499,0.0499,0.0499,0.0231,0.0243,0.0263,0.0283,0.0298,0.0314,0.0327,0.0342,0.036,0.0384,0.0393,0.0415,0.0436,0.0469,0.0482,0.05,0.0501,0.0506,0.0507,0.0508,0.0507,0.0488,0.0505,0.0505,0.0505,0.0505,0.0505,0,0.0243,0.0257,0.0274,0.0298,0.0313,0.0319,0.0339,0.0352,0.0371,0.0389,0.0407,0.0432,0.0453,0.0473,0.0495,0.0506,0.051,0.0511,0.0511,0.0514,0.0505,0.05,0.0507,0.0507,0.0507,0.0507,0.0507,0.0507,0.0251,0.0272,0.0281,0.0309,0.0323,0.0344,0.0355,0.037,0.0385,0.0411,0.0429,0.0441,0.0461,0.0484,0.0504,0.051,0.0517,0.0517,0.0523,0.0515,0.0514,0.0514,0.051,0.0518,0.0518,0.0531,0.0531,0.0531]},{"header":{"parameterUnit":"m.s-1","parameterCategory":1,"la1":30.2991,"la2":30.254,"lo1":-89.0895,"lo2":-89.0444,"dy":0.0017,"dx":0.0017,"nx":28,"ny":28,"refTime":"2024-11-26T03:00:00:Z","depth":0,"parameterNumber":3,"parameterNumberName":"V-component_of_WINDS"},"data":[0,0,0,0,0,0,0,0,0,0,0,0,0,0,0,0,0,0,0,0,0,0,0,0,0,0,0,0,0,0,0,0,0,0,0,0,0,0,0,0,0,0,0,0,0,0,0,0,0,0,0,0,0,0,0,0,0,0,2.6656,2.6656,0,2.665,2.665,2.665,2.66,2.6599,2.6598,2.6597,2.6591,2.6592,2.6593,0,0,0,0,0,0,0,0,0,0,0,0,0,2.6627,2.6627,2.6656,2.6656,2.6656,2.665,2.665,2.665,2.6601,2.6599,2.6598,2.6596,2.6591,2.6592,2.6593,0,0,0,0,0,0,0,0,0,0,0,0,0,2.6632,2.6628,2.6656,2.6631,2.6629,2.665,2.665,2.665,2.6601,2.6599,2.6597,2.6596,2.659,2.6592,2.6593,2.6639,0,0,2.6598,2.6598,0,0,0,0,0,0,0,0,2.6632,2.6633,2.6635,2.6633,2.663,2.6624,2.6637,2.6646,2.6601,2.6612,2.6597,2.6595,2.6604,2.6604,2.6607,2.6639,2.6638,2.6598,2.6599,2.6599,2.66,0,0,0,0,0,0,0,2.6631,2.6633,2.6654,2.6635,2.6632,2.662,2.6619,2.6639,2.6618,2.661,2.6607,2.6607,2.6602,2.6605,2.6606,2.6638,2.6598,2.6599,2.66,2.6601,2.6706,2.6708,0,0,0,0,0,0,2.6634,2.6633,2.6654,2.6654,2.6626,2.6622,2.6621,2.6628,2.6618,2.6614,2.6608,2.6604,2.6604,2.6605,2.6606,2.6658,2.6599,2.6601,2.6602,2.6704,2.6707,2.6709,0,0,0,0,0,0,2.6634,2.6637,2.6654,2.6642,2.6644,2.6624,2.6633,2.6629,2.6632,2.6616,2.6612,2.6616,2.6602,2.6604,2.6631,2.6657,2.6601,2.6603,2.6702,2.6705,2.6708,2.6763,0,0,0,0,0,0,2.6633,2.6637,2.6654,2.6643,2.6644,2.6679,2.6635,2.663,2.6635,2.663,2.6622,2.6619,2.6601,2.6629,2.6632,2.6658,2.6604,2.67,2.6704,2.6707,2.6759,2.6767,2.6775,0,0,0,0,0,2.6632,2.667,2.6655,2.6658,2.6665,2.6681,2.6682,2.6661,2.6637,2.6654,2.6643,2.6619,2.6654,2.6632,2.6635,2.6662,2.6698,2.6702,2.6707,2.6755,2.6766,2.6775,0,0,0,0,0,0,2.6685,2.6668,2.6651,2.6687,2.6686,2.6673,2.6693,2.6673,2.6679,2.6674,2.6647,2.6646,2.6677,2.6672,2.6648,2.6705,2.6672,2.6677,2.6707,2.6717,2.6725,2.6725,2.6605,0,0,0,0,0,2.6701,2.6715,2.6699,2.6732,2.6732,2.6713,2.6719,2.6703,2.6701,2.67,2.6692,2.6691,2.6701,2.6709,2.6718,2.6758,2.6755,2.6778,2.6786,2.6793,2.6797,2.6818,2.6827,2.6723,2.6723,2.6723,0,0,2.6733,2.6726,2.6736,2.6742,2.6739,2.6754,2.6713,2.6731,2.6742,2.6703,2.6728,2.6722,2.6719,2.6752,2.6767,2.6749,2.6826,2.6798,2.6804,2.6805,2.6823,2.6833,2.6842,2.6726,2.6726,2.6725,0,0,2.68,2.6796,2.6823,2.6821,2.6817,2.6804,2.681,2.68,2.6794,2.6819,2.679,2.6802,2.6821,2.682,2.6823,2.6889,2.6866,2.6892,2.6934,2.6954,2.6963,2.697,2.6993,2.7002,2.6897,2.6897,2.6898,0,2.6842,2.6863,2.6839,2.6858,2.6862,2.6827,2.6853,2.6852,2.6852,2.6855,2.6836,2.6858,2.6854,2.6887,2.6903,2.6906,2.6912,2.6893,2.6963,2.697,2.6977,2.6998,2.7007,2.6901,2.69,2.69,2.69,0,2.6913,2.6928,2.695,2.695,2.6956,2.6979,2.6958,2.6967,2.695,2.6939,2.6964,2.6958,2.6965,2.6971,2.6955,2.7002,2.6991,2.6968,2.6933,2.699,2.701,2.7018,2.6905,2.6904,2.6903,2.6902,0,0,2.7014,2.6999,2.7008,2.7007,2.7,2.7011,2.7032,2.7038,2.7046,2.7047,2.7064,2.7081,2.7059,2.7062,2.7045,2.7063,2.7115,2.7037,2.7037,2.7052,2.7165,2.7182,2.7192,2.71,2.7102,2.7103,2.7165,0,2.7078,2.7113,2.7092,2.713,2.7143,2.711,2.7128,2.7126,2.7116,2.7127,2.7116,2.7128,2.7099,2.71,2.7116,2.7105,2.7137,2.7101,2.7116,2.7117,2.7117,2.7203,2.7221,2.728,2.7173,2.7174,2.7175,0,2.7157,2.7161,2.72,2.719,2.7194,2.7211,2.7215,2.7225,2.7222,2.7213,2.7216,2.7195,2.7215,2.7181,2.7208,2.7184,2.7189,2.7185,2.7186,2.7187,2.7149,2.7205,2.7299,2.7308,2.7187,2.7186,2.7186,0,2.7226,2.7241,2.7266,2.7266,2.7255,2.7267,2.7263,2.7258,2.7263,2.7266,2.7269,2.7275,2.7278,2.7283,2.7264,2.7242,2.7294,2.7259,2.7288,2.7288,2.73,2.73,2.7395,2.7304,2.7304,2.7304,2.7304,0,2.7299,2.7325,2.7296,2.7312,2.7339,2.7315,2.7342,2.7335,2.733,2.7344,2.7316,2.7329,2.7304,2.7314,2.73,2.7324,2.7326,2.732,2.7316,2.7322,2.7323,2.7325,2.732,2.7306,2.7306,2.7305,2.7305,0,2.7381,2.7363,2.7388,2.7375,2.7372,2.7393,2.7382,2.7395,2.7383,2.7401,2.7404,2.7385,2.7396,2.7378,2.7388,2.7378,2.7412,2.7401,2.7413,2.741,2.7439,2.7437,2.7539,2.7552,2.7453,2.7454,2.7455,0,2.7429,2.7448,2.7436,2.7443,2.744,2.7451,2.7456,2.7432,2.7438,2.7435,2.745,2.7458,2.7464,2.7484,2.7471,2.7478,2.7468,2.7503,2.7468,2.7474,2.7468,2.7467,2.7468,2.751,2.7511,2.7512,2.7513,0,2.7516,2.7506,2.7513,2.7517,2.7523,2.7526,2.7526,2.7533,2.7508,2.7517,2.7527,2.7532,2.7541,2.755,2.7553,2.7549,2.7527,2.7524,2.7531,2.7538,2.7544,2.754,2.7432,2.7522,2.7521,2.752,2.752,2.752,2.7582,2.7597,2.7591,2.7599,2.7597,2.7598,2.761,2.7599,2.7607,2.7612,2.7598,2.7612,2.7608,2.7611,2.7609,2.762,2.7604,2.7614,2.7617,2.762,2.7624,2.7542,2.762,2.762,2.762,2.762,2.7619,0,2.7667,2.7661,2.767,2.7671,2.7678,2.7656,2.7655,2.7662,2.7675,2.7672,2.7678,2.769,2.7699,2.7687,2.7693,2.7704,2.7694,2.7707,2.7705,2.7705,2.7638,2.7631,2.7714,2.7714,2.7714,2.7714,2.7714,2.7714,2.7712,2.7736,2.7725,2.7747,2.7741,2.7754,2.7755,2.7755,2.7753,2.7768,2.7774,2.7766,2.776,2.7766,2.7772,2.7769,2.7772,2.7788,2.7781,2.7719,2.771,2.7701,2.7694,2.7789,2.7789,2.7847,2.7847,2.7848]}]]